THORAD AGENA D DEB, 4776

Orbit data source: Space-Track

THORAD AGENA D DEB, 4776 is space debris in SSO originally from a launch on Wed, 08 Apr 1970 UTC launched from the Air Force Western Test Range (AFWTR). Debris objects in space refer to the collection of defunct objects orbiting the Earth. Examples of debris include non-operational satellites, rocket bodies, and fragments generated from explosions, collisions, or faulty payload assembly.

Loading next visibility...
Identifier
4776, 1970-025DW
Orbit
SSO
Country
Flag of USUS
Related business
Manufacturer
Unknown
Mission
Spacecraft
Bus & Motor
Unknown
Mass
Unknown
Launch date (UTC)
1970-04-08 (56 years ago)
Launch vehicle
Unknown
Launch site
Air Force Western Test Range (AFWTR)
Object type
Payload
Rocket body
Debris
Shape & HBR
Unknown shape, 0.2 m
Radar Cross Section
Small (<0.1 m²)

Expand to show TLE details & history
Last TLE update: 11 hours ago

TLE from 11 hours ago
0 THORAD AGENA D DEB
1 04776U 70025DW  25287.28990244  .00002824  00000-0  19196-2 0  9994
2 04776 100.1213 210.7160 0018913 320.2219 171.0289 14.00946009703069
Epoch: 2025-10-14T06:57Z
TLE epoch observation values (Epoch: 2025-10-14T06:57:27.570Z)
Latitude
47.808°
Longitude
-85.43239°
Altitude
911.463 km
Speed
7.394 km/s
True Right ascension
02h 48m 03s
True Declination
47° 38' 26"
Sunlit
Object was in full shadow at epoch
Visualization orbit readout
Latitude
Unknown
Longitude
Unknown
Altitude
Unknown
Speed
Unknown
Apparent Right ascension
Unknown
Apparent Declination
Unknown
Sunlit
N/A
Visualization observer readout
Local Sidereal Time
12:57:02
Azimuth
Unknown
Elevation
Unknown
Doppler factor
Unknown
Orbital elements
Apogee altitude
901.519 km
Perigee altitude
874.035 km
Semi-major axis
7,265.914 km
Eccentricity
0.00189
Inclination
100.1213°
RAAN
210.716°
Arg. of periapsis
320.2219°
True anomaly
171.06262°
Mean anomaly
171.0289°
Eccentric anomaly
171.04577°
Mean motion
3.50435 °/min
Orbital period
102.73 mins
BSTAR
0.0019196

Documentation

Showing up to 5 results
|